SCP
0 0 0 0 0 0 0 0 0 0 0 0 0 0 0 0 0 0 0 0 0 0 0 0 0 0 0 0 0 0 0 0 0 0 0 0 0 0 0 0 0 0 0 0
0 0 0 0 0 0 0 0 0 0 0 0 0 0 0 0 0 0 0 0 0 0 0 0 0 0 0 0 0 0 0 0 0 0 0 0 0 0 0 0 0 0 0 0
0 0 0 0 0 0 0 0 0 0 0 0 0 0 0 0 0 0 0 0 0 0 0 0 0 0 0 0 0 0 0 0 0 0 0 0 0 0 0 0 0 0 0 0
0 0 0 0 0 0 0 0 0 0 0 0 0 0 0 0 0 0 0 0 0 0 0 0 0 0 0 0 0 0 0 0 0 0 0 0 0 0 0 0 0 0 0 0
0 0 0 0 0 0 0 0 0 0 0 0 0 0 0 0 0 0 0 0 0 0 0 0 0 0 0 0 0 0 0 0 0 0 0 0 0 0 0 0 0 0 0 0
0 0 0 0 0 0 0 0 0 0 0 0 0 0 0 0 0 0 0 0 0 0 0 0 0 0 0 0 0 0 0 0 0 0 0 0 0 0 0 0 0 0 0 0
0 0 0 0 0 0 -0 0 0 0 0 0 0 0 0 0 0 0 0 0 0 0 0 0 0 0 0 0 0 0 0 0 0 0 0 0 0 0 0 0 0 0 0 0
0 0 0 0 0 0 0 0 0 0 0 0 0 0 0 0 0 0 0 0 0 0 0 0 0 0 0 0 0 0 0 0 0 0 0 0 0 0 0 0 0 0 0 0
0 0 0 0 0 0 0 0 0 0 0 0 0 0 0 0 0 0 0 0 0 0 0 0 0 0 0 0 0 0 0 0 0 0 0 0 0 0 0 0 0 0 0 0
0 -0 -0 -0 -0 -0 -0 0 0 0 0 0 0 0 0 0 0 0 0 0 0 0 0 0 0 0 0 0 0 0 0 0 0 0 0 0 0 0 0 0 0 0 0 0
0 -0 0 0 0 0 0 0 0 0 0 0 0 0 0 0 0 0 0 0 0 0 0 0 0 0 0 0 0 0 0 0 0 0 0 0 0 0 0 0 0 0 0 0
0 0 0 0 0 0 0 0 0 0 0 0 0 0 0 0 0 0 0 0 0 0 0 0 0 0 0 0 0 0 0 0 0 0 0 0 0 0 0 0 0 0 0 0
0 0 0 0 0 0 0 0 0 0 0 0 0 0 0 0 0 0 0 0 0 0 0 0 0 0 0 0 0 0 0 0 0 0 0 0 0 0 0 0 0 0 0 0
0 0 0 0 0 0 -0 0 0 0 0 0 0 0 0 0 0 0 0 0 0 0 0 0 0 0 0 0 0 0 0 0 0 0 0 0 0 0 0 0 0 0 0 0
0 0 0 0 0 0 0 0 0 0 0 0 0 0 0 0 0 0 0 0 0 0 0 0 0 0 0 0 0 0 0 0 0 0 0 0 0 0 0 0 0 0 0 0
0 0 0 0 0 0 0 0 0 0 0 0 0 0 0 0 0 0 0 0 0 0 0 0 0 0 0 0 0 0 0 0 0 0 0 0 0 0 0 0 0 0 0 0
0 0 0 0 0 0 0 0 0 0 0 0 0 0 0 0 0 0 0 0 0 0 0 0 0 0 0 0 0 0 0 0 0 0 0 0 0 0 0 0 0 0 0 0
0 0 0 0 0 0 0 0 0 0 0 0 0 0 0 0 0 0 0 0 0 0 0 0 0 0 0 0 0 0 0 0 0 0 0 0 0 0 0 0 0 0 0 0
0 0 0 0 0 0 0 0 0 0 0 0 0 0 0 0 0 0 0 0 0 0 0 0 0 0 0 0 0 0 0 0 0 0 0 0 0 0 0 0 0 0 0 0
0 0 0 0 0 0 0 0 0 0 0 0 0 0 0 0 0 0 0 0 0 0 0 0 0 0 0 0 0 0 0 0 0 0 0 0 0 0 0 0 0 0 0 0
0 0 0 0 0 0 0 0 0 0 0 0 0 0 0 0 0 0 0 0 0 0 0 0 0 0 0 0 0 0 0 0 0 0 0 0 0 0 0 0 0 0 0 0
0 0 0 0 0 0 0 0 0 0 0 0 0 0 0 0 0 0 0 0 0 0 0 0 0 0 0 0 0 0 0 0 0 0 0 0 0 0 0 0 0 0 0 0
0 0 0 0 0 0 0 0 0 0 0 0 0 0 0 0 0 0 0 0 0 0 0 0 0 0 0 0 0 0 0 0 0 0 0 0 0 0 0 0 0 0 0 0
0 0 0 0 0 0 0 0 0 0 0 0 0 0 0 0 0 0 0 0 0 0 0 0 0 0 0 0 0 0 0 0 0 0 0 0 0 0 0 0 0 0 0 0
0 0 0 0 0 0 0 0 0 0 0 0 0 0 0 0 0 0 0 0 0 0 0 0 0 0 0 0 0 0 0 0 0 0 0 0 0 0 0 0 0 0 0 0
0 0 0 0 0 0 0 0 0 0 0 0 0 0 0 0 0 0 0 0 0 0 0 0 0 0 0 0 0 0 0 0 0 0 0 0 0 0 0 0 0 0 0 0
0 0 0 0 0 0 0 0 0 0 0 0 0 0 0 0 0 0 0 0 0 0 0 0 0 0 0 0 0 0 0 0 0 0 0 0 0 0 0 0 0 0 0 0
Wind_Speed_500mb
44 47 34 29 23 41 44 57 44 59 50 68 37 37 48 63 80 60 67 73 68 64 66 65 60 51 41 49 52 53 54 55 62 68 71 75 70 77 78 80 77 78 83 89
44 49 48 37 32 36 49 52 41 57 59 70 69 70 52 55 57 59 67 77 84 92 88 75 58 58 59 56 58 67 64 63 63 70 74 78 73 75 76 74 75 78 84 88
38 41 31 29 54 60 49 45 48 47 67 55 49 40 53 58 57 66 74 80 84 85 86 87 88 85 80 73 73 75 72 71 70 72 76 80 75 74 80 77 74 76 79 86
16 19 27 10 33 46 52 54 51 48 55 58 59 59 59 66 64 69 70 76 85 89 90 87 78 72 73 76 75 76 73 72 73 75 76 79 76 75 82 78 76 77 78 83
15 23 23 35 17 15 25 47 50 55 62 81 93 52 76 86 66 76 78 74 67 62 57 54 52 50 54 57 62 69 72 71 70 72 76 78 79 77 80 77 75 76 78 84
20 25 21 25 12 10 10 28 40 40 49 56 49 20 34 45 38 36 35 37 42 44 46 40 43 56 58 54 55 58 58 59 62 66 69 72 73 74 77 76 75 77 80 82
35 27 12 14 8 15 17 11 13 14 34 31 14 30 43 29 33 40 46 47 48 50 55 55 51 46 46 47 46 42 42 44 46 49 53 58 63 68 69 70 70 71 69 66
15 16 16 26 2 10 19 33 50 54 32 25 32 33 36 37 34 34 40 44 44 38 33 32 32 31 29 32 31 31 30 30 31 33 38 44 50 52 54 56 55 48 47 50
9 12 25 25 43 52 29 23 24 34 54 36 42 48 43 37 32 30 32 34 33 30 28 26 23 21 18 20 18 19 21 23 24 26 27 31 35 39 42 43 41 43 44 54
26 36 25 25 15 14 12 17 28 34 50 47 44 45 43 42 31 24 27 29 26 24 20 16 15 14 13 13 15 17 18 20 23 23 25 26 26 27 32 34 39 37 43 51
19 21 22 18 11 24 27 29 38 43 43 47 50 44 35 34 29 20 17 19 18 15 14 13 14 18 24 24 21 24 24 24 25 26 27 30 31 32 32 28 26 31 37 40
28 41 21 27 35 22 29 37 33 35 38 37 40 42 35 30 22 18 15 16 19 19 19 22 25 28 29 29 26 19 23 24 24 23 24 25 27 25 24 20 24 25 27 29
41 55 48 51 43 47 39 29 28 30 36 40 36 34 30 25 20 16 16 19 21 23 24 26 24 23 26 27 24 17 16 22 21 20 20 19 20 20 25 27 25 23 25 29
64 51 42 53 39 28 32 32 29 30 33 32 31 25 23 24 24 23 24 26 27 29 30 31 32 31 29 27 26 24 21 20 18 17 16 17 18 19 18 16 15 19 24 27
72 67 63 58 47 41 38 33 33 36 36 37 35 29 25 28 30 31 34 37 40 42 44 40 39 37 33 30 24 22 19 18 18 18 18 17 16 16 15 15 14 16 17 18
55 53 57 65 65 55 40 37 38 37 35 35 33 33 35 36 39 42 44 43 43 45 41 36 34 36 30 18 11 14 17 16 14 14 14 12 13 13 15 16 17 19 21 22
32 41 49 59 52 39 37 34 36 39 40 36 34 32 36 40 46 48 46 40 34 36 41 37 23 16 14 18 19 15 14 14 14 12 12 12 12 12 13 15 17 21 26 27
34 39 36 33 31 32 33 30 27 27 29 32 30 34 36 39 44 45 41 38 35 30 23 23 22 22 22 19 17 15 13 11 11 10 10 9 10 11 14 17 20 24 27 32
31 31 31 35 30 31 33 24 27 29 32 35 40 40 42 40 42 44 43 37 32 29 24 21 23 21 18 17 15 13 11 9 8 7 7 8 10 12 14 18 22 25 29 32
23 23 23 27 24 23 22 26 29 32 36 39 39 39 38 42 41 43 42 39 34 30 30 26 21 18 16 14 12 8 6 4 4 5 7 10 14 17 21 24 27 30 33 35
16 17 16 17 13 17 21 24 27 32 34 34 33 35 41 41 37 35 33 34 34 31 27 24 20 16 14 11 8 5 2 4 7 10 13 16 19 22 25 28 31 33 35 37
11 12 12 14 13 17 20 24 26 32 36 38 41 41 41 41 38 35 31 28 31 28 24 19 16 13 10 7 4 3 6 9 12 15 18 22 25 27 30 33 35 38 40 42
7 6 8 11 17 21 25 30 36 39 43 41 41 41 38 39 37 34 32 29 26 22 18 13 9 5 2 3 7 10 14 17 20 22 25 28 31 33 35 37 39 41 43 44
7 10 15 21 24 27 33 37 38 41 44 44 42 41 37 34 31 27 26 21 17 12 7 2 3 6 9 13 16 20 23 25 28 30 32 35 37 39 40 42 43 44 46 47
19 25 29 32 35 39 41 42 42 42 41 41 39 36 31 26 21 22 17 12 7 3 3 7 10 14 18 22 25 28 30 33 36 37 39 40 42 45 46 48 49 50 51 51
28 32 33 37 41 41 41 40 43 42 36 35 34 31 27 23 18 13 8 3 3 8 13 17 20 24 27 30 32 35 38 40 42 44 46 49 52 53 55 56 58 59 60 61
33 35 35 37 36 33 33 33 32 33 29 25 22 19 15 11 7 4 6 10 14 19 23 27 30 34 37 40 42 45 48 50 52 55 58 60 61 63 64 66 68 69 70 70
Wind_Direction_500mb
251 257 255 249 237 211 215 228 231 252 247 263 258 262 267 275 282 289 286 284 284 278 276 279 277 280 285 279 265 260 257 255 249 240 233 232 237 230 230 232 236 235 232 228
263 250 241 242 239 227 217 231 240 250 263 261 269 265 260 255 255 264 273 276 278 282 288 290 290 296 294 277 278 263 258 256 250 242 234 231 236 230 229 233 237 236 233 229
250 271 263 238 230 236 239 233 233 239 246 258 261 258 261 266 263 260 265 271 277 280 284 286 288 290 283 278 272 264 257 254 250 245 238 232 235 228 228 231 236 238 235 229
267 283 260 274 260 242 244 245 245 250 260 264 266 273 271 261 263 266 267 274 280 283 284 285 285 278 275 271 267 264 258 253 249 246 240 235 236 231 231 231 236 238 238 233
252 257 286 287 267 208 221 248 239 240 250 258 265 271 269 265 266 268 277 282 283 285 286 286 285 282 278 271 265 261 261 257 251 246 241 237 236 234 233 234 236 239 240 234
236 245 255 283 326 284 283 258 267 239 242 251 263 249 265 288 287 279 277 283 284 284 284 280 280 284 278 273 265 262 260 256 252 247 243 239 237 235 236 237 236 237 238 233
233 245 254 255 168 151 190 265 350 4 276 268 235 242 274 285 287 292 292 287 281 281 282 282 280 275 271 268 265 262 254 250 248 246 243 240 235 232 234 235 235 235 237 233
218 221 225 18 332 241 343 324 309 291 280 330 317 291 283 288 295 291 288 289 291 289 286 284 281 271 264 260 254 247 240 234 233 231 232 232 233 230 230 234 235 233 230 216
193 280 271 258 247 284 289 298 309 319 317 324 312 300 299 292 289 286 281 280 283 283 279 274 265 256 248 245 237 228 218 209 207 206 207 211 218 218 222 223 221 223 224 213
275 264 260 244 296 352 336 338 338 334 305 314 301 296 294 288 282 271 270 275 271 266 261 247 233 228 212 196 185 177 178 177 176 180 182 183 188 200 211 208 210 213 210 207
259 275 273 233 269 298 289 299 309 310 301 298 295 294 285 273 278 279 263 255 250 241 225 199 170 158 146 143 143 146 149 152 153 157 163 165 179 192 199 211 221 221 218 217
255 274 254 282 287 267 294 301 304 298 294 285 279 277 271 267 263 252 242 226 212 194 177 155 144 143 142 138 136 142 139 140 145 152 165 173 179 184 191 202 215 216 222 233
241 246 256 276 277 279 280 292 292 292 291 283 273 264 254 253 249 237 212 198 190 172 155 142 143 138 124 118 118 127 135 131 136 145 153 167 166 176 183 197 208 213 220 224
252 258 266 268 268 268 277 278 278 276 268 256 252 244 248 245 221 203 191 184 176 164 147 129 122 126 129 126 127 136 135 130 132 138 148 159 167 174 185 203 211 224 231 235
261 261 260 261 258 264 267 268 266 257 249 251 254 249 238 222 203 182 165 158 152 145 135 136 135 127 123 119 120 121 120 124 135 146 155 162 169 178 188 200 215 231 241 241
266 254 250 250 255 260 262 267 263 258 248 240 239 231 219 203 182 163 152 145 149 139 130 137 140 132 123 108 130 159 158 157 161 168 172 182 192 204 217 224 229 235 244 249
265 252 243 242 246 255 258 258 256 252 249 240 225 210 195 181 167 157 150 152 152 151 144 139 134 144 170 186 170 169 170 177 180 188 194 198 208 220 231 240 244 243 244 247
260 265 269 262 253 250 241 239 238 236 231 216 198 182 170 168 164 156 157 156 153 148 145 165 169 182 180 175 170 171 174 182 188 193 201 211 223 234 242 247 251 253 256 257
276 277 277 273 260 242 230 217 215 211 209 195 186 182 178 181 176 166 163 165 164 167 164 168 171 165 164 168 167 167 170 180 194 212 229 244 256 263 266 267 267 266 265 265
277 270 265 260 243 232 224 210 206 202 199 200 195 192 185 176 174 168 164 163 166 170 164 159 157 158 160 162 159 157 165 188 225 266 283 286 287 286 281 278 276 275 272 273
263 253 241 255 235 214 200 193 192 190 187 182 184 178 176 166 161 163 159 156 148 150 151 153 151 153 149 144 141 149 191 263 278 282 284 284 281 280 280 279 276 275 274 274
269 251 229 222 206 189 171 168 168 170 168 167 164 166 162 155 153 151 149 151 145 141 139 141 148 151 152 156 183 245 276 283 284 283 281 281 281 280 279 279 279 279 279 278
267 242 213 186 183 158 152 151 148 151 150 150 150 150 153 145 142 140 141 138 139 143 142 144 143 143 171 289 296 296 294 293 292 292 291 289 287 286 286 285 284 283 282 282
136 142 146 144 137 135 138 126 132 133 135 134 134 133 134 136 131 131 133 130 128 123 116 87 342 319 312 310 308 306 305 303 300 297 295 294 292 290 289 288 287 286 286 284
130 132 130 129 133 129 125 126 127 123 125 125 122 121 120 119 125 126 124 122 113 91 326 315 311 307 304 303 302 301 300 299 298 297 295 294 293 292 291 291 291 290 289 288
124 127 127 130 125 123 124 127 123 120 121 121 120 118 118 120 119 116 112 81 331 313 309 307 305 304 304 303 302 300 298 297 296 296 295 294 293 293 293 292 292 291 290 289
128 128 127 124 124 126 127 125 123 119 116 112 109 107 101 93 77 32 339 321 315 311 308 306 303 302 300 298 296 296 295 296 295 295 294 293 293 293 293 292 291 291 291 291
Wind_Speed_850mb
44 47 34 29 23 41 44 57 44 59 50 68 37 37 48 63 80 60 67 73 68 64 66 65 60 51 41 49 52 53 54 55 62 68 71 75 70 77 78 80 77 78 83 89
44 49 48 37 32 36 49 52 41 57 59 70 69 70 52 55 57 59 67 77 84 92 88 75 58 58 59 56 58 67 64 63 63 70 74 78 73 75 76 74 75 78 84 88
38 41 31 29 54 60 49 45 48 47 67 55 49 40 53 58 57 66 74 80 84 85 86 87 88 85 80 73 73 75 72 71 70 72 76 80 75 74 80 77 74 76 79 86
16 19 27 10 33 46 52 54 51 48 55 58 59 59 59 66 64 69 70 76 85 89 90 87 78 72 73 76 75 76 73 72 73 75 76 79 76 75 82 78 76 77 78 83
15 23 23 35 17 15 25 47 50 55 62 81 93 52 76 86 66 76 78 74 67 62 57 54 52 50 54 57 62 69 72 71 70 72 76 78 79 77 80 77 75 76 78 84
20 25 21 25 12 10 10 28 40 40 49 56 49 20 34 45 38 36 35 37 42 44 46 40 43 56 58 54 55 58 58 59 62 66 69 72 73 74 77 76 75 77 80 82
35 27 12 14 8 15 17 11 13 14 34 31 14 30 43 29 33 40 46 47 48 50 55 55 51 46 46 47 46 42 42 44 46 49 53 58 63 68 69 70 70 71 69 66
15 16 16 26 2 10 19 33 50 54 32 25 32 33 36 37 34 34 40 44 44 38 33 32 32 31 29 32 31 31 30 30 31 33 38 44 50 52 54 56 55 48 47 50
9 12 25 25 43 52 29 23 24 34 54 36 42 48 43 37 32 30 32 34 33 30 28 26 23 21 18 20 18 19 21 23 24 26 27 31 35 39 42 43 41 43 44 54
26 36 25 25 15 14 12 17 28 34 50 47 44 45 43 42 31 24 27 29 26 24 20 16 15 14 13 13 15 17 18 20 23 23 25 26 26 27 32 34 39 37 43 51
19 21 22 18 11 24 27 29 38 43 43 47 50 44 35 34 29 20 17 19 18 15 14 13 14 18 24 24 21 24 24 24 25 26 27 30 31 32 32 28 26 31 37 40
28 41 21 27 35 22 29 37 33 35 38 37 40 42 35 30 22 18 15 16 19 19 19 22 25 28 29 29 26 19 23 24 24 23 24 25 27 25 24 20 24 25 27 29
41 55 48 51 43 47 39 29 28 30 36 40 36 34 30 25 20 16 16 19 21 23 24 26 24 23 26 27 24 17 16 22 21 20 20 19 20 20 25 27 25 23 25 29
64 51 42 53 39 28 32 32 29 30 33 32 31 25 23 24 24 23 24 26 27 29 30 31 32 31 29 27 26 24 21 20 18 17 16 17 18 19 18 16 15 19 24 27
72 67 63 58 47 41 38 33 33 36 36 37 35 29 25 28 30 31 34 37 40 42 44 40 39 37 33 30 24 22 19 18 18 18 18 17 16 16 15 15 14 16 17 18
55 53 57 65 65 55 40 37 38 37 35 35 33 33 35 36 39 42 44 43 43 45 41 36 34 36 30 18 11 14 17 16 14 14 14 12 13 13 15 16 17 19 21 22
32 41 49 59 52 39 37 34 36 39 40 36 34 32 36 40 46 48 46 40 34 36 41 37 23 16 14 18 19 15 14 14 14 12 12 12 12 12 13 15 17 21 26 27
34 39 36 33 31 32 33 30 27 27 29 32 30 34 36 39 44 45 41 38 35 30 23 23 22 22 22 19 17 15 13 11 11 10 10 9 10 11 14 17 20 24 27 32
31 31 31 35 30 31 33 24 27 29 32 35 40 40 42 40 42 44 43 37 32 29 24 21 23 21 18 17 15 13 11 9 8 7 7 8 10 12 14 18 22 25 29 32
23 23 23 27 24 23 22 26 29 32 36 39 39 39 38 42 41 43 42 39 34 30 30 26 21 18 16 14 12 8 6 4 4 5 7 10 14 17 21 24 27 30 33 35
16 17 16 17 13 17 21 24 27 32 34 34 33 35 41 41 37 35 33 34 34 31 27 24 20 16 14 11 8 5 2 4 7 10 13 16 19 22 25 28 31 33 35 37
11 12 12 14 13 17 20 24 26 32 36 38 41 41 41 41 38 35 31 28 31 28 24 19 16 13 10 7 4 3 6 9 12 15 18 22 25 27 30 33 35 38 40 42
7 6 8 11 17 21 25 30 36 39 43 41 41 41 38 39 37 34 32 29 26 22 18 13 9 5 2 3 7 10 14 17 20 22 25 28 31 33 35 37 39 41 43 44
7 10 15 21 24 27 33 37 38 41 44 44 42 41 37 34 31 27 26 21 17 12 7 2 3 6 9 13 16 20 23 25 28 30 32 35 37 39 40 42 43 44 46 47
19 25 29 32 35 39 41 42 42 42 41 41 39 36 31 26 21 22 17 12 7 3 3 7 10 14 18 22 25 28 30 33 36 37 39 40 42 45 46 48 49 50 51 51
28 32 33 37 41 41 41 40 43 42 36 35 34 31 27 23 18 13 8 3 3 8 13 17 20 24 27 30 32 35 38 40 42 44 46 49 52 53 55 56 58 59 60 61
33 35 35 37 36 33 33 33 32 33 29 25 22 19 15 11 7 4 6 10 14 19 23 27 30 34 37 40 42 45 48 50 52 55 58 60 61 63 64 66 68 69 70 70
Wind_Direction_850mb
251 257 255 249 237 211 215 228 231 252 247 263 258 262 267 275 282 289 286 284 284 278 276 279 277 280 285 279 265 260 257 255 249 240 233 232 237 230 230 232 236 235 232 228
263 250 241 242 239 227 217 231 240 250 263 261 269 265 260 255 255 264 273 276 278 282 288 290 290 296 294 277 278 263 258 256 250 242 234 231 236 230 229 233 237 236 233 229
250 271 263 238 230 236 239 233 233 239 246 258 261 258 261 266 263 260 265 271 277 280 284 286 288 290 283 278 272 264 257 254 250 245 238 232 235 228 228 231 236 238 235 229
267 283 260 274 260 242 244 245 245 250 260 264 266 273 271 261 263 266 267 274 280 283 284 285 285 278 275 271 267 264 258 253 249 246 240 235 236 231 231 231 236 238 238 233
252 257 286 287 267 208 221 248 239 240 250 258 265 271 269 265 266 268 277 282 283 285 286 286 285 282 278 271 265 261 261 257 251 246 241 237 236 234 233 234 236 239 240 234
236 245 255 283 326 284 283 258 267 239 242 251 263 249 265 288 287 279 277 283 284 284 284 280 280 284 278 273 265 262 260 256 252 247 243 239 237 235 236 237 236 237 238 233
233 245 254 255 168 151 190 265 350 4 276 268 235 242 274 285 287 292 292 287 281 281 282 282 280 275 271 268 265 262 254 250 248 246 243 240 235 232 234 235 235 235 237 233
218 221 225 18 332 241 343 324 309 291 280 330 317 291 283 288 295 291 288 289 291 289 286 284 281 271 264 260 254 247 240 234 233 231 232 232 233 230 230 234 235 233 230 216
193 280 271 258 247 284 289 298 309 319 317 324 312 300 299 292 289 286 281 280 283 283 279 274 265 256 248 245 237 228 218 209 207 206 207 211 218 218 222 223 221 223 224 213
275 264 260 244 296 352 336 338 338 334 305 314 301 296 294 288 282 271 270 275 271 266 261 247 233 228 212 196 185 177 178 177 176 180 182 183 188 200 211 208 210 213 210 207
259 275 273 233 269 298 289 299 309 310 301 298 295 294 285 273 278 279 263 255 250 241 225 199 170 158 146 143 143 146 149 152 153 157 163 165 179 192 199 211 221 221 218 217
255 274 254 282 287 267 294 301 304 298 294 285 279 277 271 267 263 252 242 226 212 194 177 155 144 143 142 138 136 142 139 140 145 152 165 173 179 184 191 202 215 216 222 233
241 246 256 276 277 279 280 292 292 292 291 283 273 264 254 253 249 237 212 198 190 172 155 142 143 138 124 118 118 127 135 131 136 145 153 167 166 176 183 197 208 213 220 224
252 258 266 268 268 268 277 278 278 276 268 256 252 244 248 245 221 203 191 184 176 164 147 129 122 126 129 126 127 136 135 130 132 138 148 159 167 174 185 203 211 224 231 235
261 261 260 261 258 264 267 268 266 257 249 251 254 249 238 222 203 182 165 158 152 145 135 136 135 127 123 119 120 121 120 124 135 146 155 162 169 178 188 200 215 231 241 241
266 254 250 250 255 260 262 267 263 258 248 240 239 231 219 203 182 163 152 145 149 139 130 137 140 132 123 108 130 159 158 157 161 168 172 182 192 204 217 224 229 235 244 249
265 252 243 242 246 255 258 258 256 252 249 240 225 210 195 181 167 157 150 152 152 151 144 139 134 144 170 186 170 169 170 177 180 188 194 198 208 220 231 240 244 243 244 247
260 265 269 262 253 250 241 239 238 236 231 216 198 182 170 168 164 156 157 156 153 148 145 165 169 182 180 175 170 171 174 182 188 193 201 211 223 234 242 247 251 253 256 257
276 277 277 273 260 242 230 217 215 211 209 195 186 182 178 181 176 166 163 165 164 167 164 168 171 165 164 168 167 167 170 180 194 212 229 244 256 263 266 267 267 266 265 265
277 270 265 260 243 232 224 210 206 202 199 200 195 192 185 176 174 168 164 163 166 170 164 159 157 158 160 162 159 157 165 188 225 266 283 286 287 286 281 278 276 275 272 273
263 253 241 255 235 214 200 193 192 190 187 182 184 178 176 166 161 163 159 156 148 150 151 153 151 153 149 144 141 149 191 263 278 282 284 284 281 280 280 279 276 275 274 274
269 251 229 222 206 189 171 168 168 170 168 167 164 166 162 155 153 151 149 151 145 141 139 141 148 151 152 156 183 245 276 283 284 283 281 281 281 280 279 279 279 279 279 278
267 242 213 186 183 158 152 151 148 151 150 150 150 150 153 145 142 140 141 138 139 143 142 144 143 143 171 289 296 296 294 293 292 292 291 289 287 286 286 285 284 283 282 282
136 142 146 144 137 135 138 126 132 133 135 134 134 133 134 136 131 131 133 130 128 123 116 87 342 319 312 310 308 306 305 303 300 297 295 294 292 290 289 288 287 286 286 284
130 132 130 129 133 129 125 126 127 123 125 125 122 121 120 119 125 126 124 122 113 91 326 315 311 307 304 303 302 301 300 299 298 297 295 294 293 292 291 291 291 290 289 288
124 127 127 130 125 123 124 127 123 120 121 121 120 118 118 120 119 116 112 81 331 313 309 307 305 304 304 303 302 300 298 297 296 296 295 294 293 293 293 292 292 291 290 289
128 128 127 124 124 126 127 125 123 119 116 112 109 107 101 93 77 32 339 321 315 311 308 306 303 302 300 298 296 296 295 296 295 295 294 293 293 293 293 292 291 291 291 291